EZY87RK EGNT-DTNH

Flight info

Callsign EZY87RK
Flight time 3h 15m
Altitude 37000
Route GIRLI P18 GASKO P16 RIBEL UP16 CROFT UL612 HON DCT XAMAB DCT VEULE DCT DEKOD DCT DISAK DCT DIRMO DCT ETAMO DCT ADEKA DCT MOKDI DCT MEN DCT AMLIR DCT FJR DCT AMFAC DCT BATIV DCT PELOS DCT IPROM DCT KOVAS DCT CAR DCT PIRIX DCT OSMAR UA725 TANIT UM739 CBN M738 DIDON G727 ATLEL
Aircraft A20N/M-SDE2E3FGHIJ1RWXYZ/LB1

Departure

Time 2026-05-04 07:23
Airport Newcastle International Airport (EGNT)

Arrival

Time 2026-05-04 10:39
Airport Enfidha - Hammamet International Airport (DTNH)
Time Latitude Longitude Altitude Speed Heading
2026-05-04 06:20 55.03661 -1.70780 267 ft 0 kts
2026-05-04 06:54 55.03655 -1.70781 267 ft 4 kts
2026-05-04 06:54 55.03633 -1.70783 267 ft 4 kts 11°
2026-05-04 06:55 55.03610 -1.70803 267 ft 4 kts 53°
2026-05-04 06:55 55.03595 -1.70838 267 ft 4 kts 24°
2026-05-04 06:55 55.03576 -1.70846 267 ft 3 kts
2026-05-04 06:55 55.03573 -1.70847 267 ft 0 kts
2026-05-04 07:05 55.03582 -1.70839 267 ft 5 kts 37°
2026-05-04 07:05 55.03586 -1.70726 267 ft 14 kts 90°
2026-05-04 07:05 55.03591 -1.70537 267 ft 15 kts 78°
2026-05-04 07:06 55.03659 -1.70437 267 ft 0 kts
2026-05-04 07:16 55.03671 -1.70435 267 ft 5 kts
2026-05-04 07:17 55.03730 -1.70425 267 ft 12 kts
2026-05-04 07:17 55.03799 -1.70361 267 ft 10 kts 107°
2026-05-04 07:17 55.03774 -1.70221 263 ft 16 kts 95°
2026-05-04 07:17 55.03771 -1.69984 260 ft 23 kts 87°
2026-05-04 07:18 55.03796 -1.69685 257 ft 22 kts 75°
2026-05-04 07:18 55.03854 -1.69404 255 ft 23 kts 60°
2026-05-04 07:18 55.03927 -1.69157 252 ft 24 kts 66°
2026-05-04 07:18 55.03998 -1.68871 250 ft 25 kts 65°
2026-05-04 07:19 55.04040 -1.68715 249 ft 19 kts 65°
2026-05-04 07:19 55.04121 -1.68411 248 ft 22 kts 65°
2026-05-04 07:19 55.04191 -1.68157 247 ft 24 kts 64°
2026-05-04 07:19 55.04265 -1.67889 246 ft 25 kts 64°
2026-05-04 07:20 55.04334 -1.67626 243 ft 17 kts 79°
2026-05-04 07:20 55.04335 -1.67483 241 ft 12 kts 91°
2026-05-04 07:20 55.04312 -1.67404 241 ft 0 kts 143°
2026-05-04 07:22 55.04223 -1.67378 241 ft 15 kts 227°
2026-05-04 07:22 55.04155 -1.67626 245 ft 33 kts 244°
2026-05-04 07:23 55.03949 -1.68401 248 ft 105 kts 245°
2026-05-04 07:23 55.03563 -1.69869 265 ft 159 kts 245°
2026-05-04 07:23 55.03084 -1.71719 763 ft 167 kts 245°
2026-05-04 07:23 55.02534 -1.73522 1469 ft 173 kts 236°
2026-05-04 07:24 55.01773 -1.75183 2184 ft 178 kts 225°
2026-05-04 07:24 55.00790 -1.76575 2810 ft 191 kts 210°
2026-05-04 07:24 54.99516 -1.77607 3231 ft 214 kts 200°
2026-05-04 07:24 54.98029 -1.78502 3688 ft 237 kts 198°
2026-05-04 07:25 54.96389 -1.79436 4191 ft 259 kts 199°
2026-05-04 07:26 54.83709 -1.87326 10256 ft 291 kts 201°
2026-05-04 07:27 54.81719 -1.88029 11072 ft 296 kts 180°
2026-05-04 07:27 54.79698 -1.87308 11846 ft 302 kts 157°
2026-05-04 07:27 54.77747 -1.85737 12335 ft 318 kts 155°
2026-05-04 07:27 54.75672 -1.84025 12568 ft 341 kts 155°
2026-05-04 07:28 54.73501 -1.82257 12981 ft 354 kts 158°
2026-05-04 07:28 54.71121 -1.81101 13742 ft 356 kts 174°
2026-05-04 07:28 54.68650 -1.81065 14445 ft 356 kts 189°
2026-05-04 07:28 54.66198 -1.81824 15111 ft 360 kts 192°
2026-05-04 07:29 54.63735 -1.82625 15794 ft 363 kts 191°
2026-05-04 07:29 54.61221 -1.83349 16459 ft 367 kts 189°
2026-05-04 07:29 54.58680 -1.83983 17141 ft 370 kts 189°
2026-05-04 07:29 54.56122 -1.84606 17794 ft 373 kts 189°
2026-05-04 07:30 54.53537 -1.85246 18431 ft 377 kts 189°
2026-05-04 07:30 54.50892 -1.85914 18976 ft 381 kts 189°
2026-05-04 07:30 54.48252 -1.86589 19503 ft 385 kts 189°
2026-05-04 07:30 54.45586 -1.87273 20038 ft 389 kts 189°
2026-05-04 07:31 54.42899 -1.87964 20566 ft 393 kts 189°
2026-05-04 07:31 54.40185 -1.88661 21103 ft 397 kts 188°
2026-05-04 07:33 54.20426 -1.93699 24500 ft 423 kts 188°
2026-05-04 07:33 54.17497 -1.94441 24905 ft 426 kts 188°
2026-05-04 07:33 54.14551 -1.95186 25310 ft 430 kts 188°
2026-05-04 07:33 54.11606 -1.95930 25690 ft 433 kts 187°
2026-05-04 07:34 54.08610 -1.96686 26078 ft 437 kts 187°
2026-05-04 07:34 54.05580 -1.97449 26449 ft 440 kts 187°
2026-05-04 07:34 54.02531 -1.98216 26823 ft 443 kts 187°
2026-05-04 07:34 53.99471 -1.98984 27174 ft 447 kts 187°
2026-05-04 07:35 53.96375 -1.99761 27531 ft 450 kts 187°
2026-05-04 07:35 53.93268 -2.00538 27868 ft 453 kts 187°
2026-05-04 07:35 53.90133 -2.01322 28199 ft 456 kts 187°
2026-05-04 07:35 53.87013 -2.02101 28522 ft 459 kts 187°
2026-05-04 07:36 53.83836 -2.02893 28831 ft 462 kts 187°
2026-05-04 07:36 53.80634 -2.03689 29141 ft 465 kts 187°
2026-05-04 07:38 53.57840 -2.09325 31243 ft 478 kts 186°
2026-05-04 07:38 53.54537 -2.10137 31632 ft 477 kts 186°
2026-05-04 07:38 53.51266 -2.10939 32050 ft 475 kts 186°
2026-05-04 07:38 53.48037 -2.11730 32466 ft 473 kts 186°
2026-05-04 07:39 53.44789 -2.12525 32881 ft 471 kts 187°
2026-05-04 07:39 53.41550 -2.13315 33275 ft 468 kts 187°
2026-05-04 07:39 53.38324 -2.14101 33678 ft 466 kts 187°
2026-05-04 07:39 53.35125 -2.14879 34051 ft 464 kts 187°
2026-05-04 07:40 53.31907 -2.15660 34360 ft 463 kts 187°
2026-05-04 07:40 53.28728 -2.16430 34640 ft 461 kts 187°
2026-05-04 07:40 53.25543 -2.17200 34923 ft 460 kts 187°
2026-05-04 07:40 53.22384 -2.17962 35174 ft 459 kts 187°
2026-05-04 07:41 53.19217 -2.18722 35404 ft 458 kts 186°
2026-05-04 07:41 53.16044 -2.18996 35620 ft 457 kts 176°
2026-05-04 07:41 53.12927 -2.18382 35824 ft 455 kts 167°
2026-05-04 07:41 53.09847 -2.16857 36003 ft 454 kts 157°
2026-05-04 07:42 53.06972 -2.14845 36174 ft 454 kts 156°
2026-05-04 07:42 53.04054 -2.12803 36342 ft 454 kts 156°
2026-05-04 07:42 53.01139 -2.10778 36524 ft 454 kts 156°
2026-05-04 07:42 52.98222 -2.08764 36709 ft 454 kts 157°
2026-05-04 07:43 52.95306 -2.06756 36908 ft 453 kts 157°
2026-05-04 07:43 52.92388 -2.04751 37030 ft 453 kts 157°
2026-05-04 07:43 52.86598 -2.00784 37032 ft 451 kts 157°
2026-05-04 07:44 52.80782 -1.96809 37033 ft 452 kts 158°
2026-05-04 07:44 52.74973 -1.92851 37032 ft 450 kts 158°
2026-05-04 07:45 52.69172 -1.88909 37036 ft 450 kts 158°
2026-05-04 07:45 52.63384 -1.84988 37039 ft 449 kts 158°
2026-05-04 07:46 52.57599 -1.81080 37039 ft 448 kts 158°
2026-05-04 07:46 52.51857 -1.77212 37033 ft 447 kts 158°
2026-05-04 07:47 52.46083 -1.73333 37034 ft 447 kts 158°
2026-05-04 07:49 52.23851 -1.55228 37011 ft 448 kts 151°
2026-05-04 07:49 52.18482 -1.50177 37015 ft 448 kts 151°
2026-05-04 07:50 52.13066 -1.45105 37021 ft 449 kts 151°
2026-05-04 07:50 52.07641 -1.40039 37021 ft 449 kts 151°
2026-05-04 07:51 52.02215 -1.34988 37024 ft 449 kts 151°
2026-05-04 07:51 51.96791 -1.29953 37026 ft 449 kts 151°
2026-05-04 07:52 51.91394 -1.24955 37028 ft 449 kts 151°
2026-05-04 07:52 51.85966 -1.19945 37031 ft 449 kts 151°
2026-05-04 07:54 51.65207 -1.00908 36992 ft 447 kts 152°
2026-05-04 07:55 51.59781 -0.95965 36994 ft 446 kts 152°
2026-05-04 07:55 51.54399 -0.91076 36994 ft 446 kts 152°
2026-05-04 07:56 51.48981 -0.86168 36997 ft 446 kts 152°
2026-05-04 07:56 51.43685 -0.81383 36994 ft 446 kts 152°
2026-05-04 07:57 51.38310 -0.76540 36990 ft 445 kts 152°
2026-05-04 07:57 51.32902 -0.71680 36992 ft 445 kts 152°
2026-05-04 07:58 51.27492 -0.66832 36987 ft 445 kts 152°
2026-05-04 07:58 51.22125 -0.62035 37015 ft 444 kts 152°
2026-05-04 07:59 51.16715 -0.57213 37021 ft 444 kts 152°
2026-05-04 07:59 51.11315 -0.52413 37002 ft 444 kts 153°
2026-05-04 08:00 51.05947 -0.47654 36996 ft 444 kts 153°
2026-05-04 08:02 50.84384 -0.28664 37024 ft 442 kts 153°
2026-05-04 08:02 50.79018 -0.23971 37037 ft 442 kts 153°
2026-05-04 08:03 50.73639 -0.19277 37022 ft 441 kts 153°
2026-05-04 08:03 50.68265 -0.14602 37017 ft 440 kts 154°
2026-05-04 08:04 50.62896 -0.09942 37020 ft 439 kts 154°
2026-05-04 08:04 50.57537 -0.05303 37019 ft 438 kts 154°
2026-05-04 08:05 50.52221 -0.00714 37013 ft 437 kts 154°
2026-05-04 08:05 50.46885 0.03880 37009 ft 437 kts 154°
2026-05-04 08:06 50.41558 0.08455 37004 ft 436 kts 154°
2026-05-04 08:06 50.36263 0.12991 36984 ft 435 kts 154°
2026-05-04 08:08 50.15254 0.31760 36982 ft 436 kts 149°
2026-05-04 08:11 49.92348 0.55221 37002 ft 437 kts 150°
2026-05-04 08:11 49.84714 0.62959 37007 ft 438 kts 150°
2026-05-04 08:12 49.79553 0.67997 37017 ft 438 kts 151°
2026-05-04 08:12 49.74385 0.72995 37002 ft 437 kts 151°
2026-05-04 08:13 49.69274 0.77950 36999 ft 435 kts 151°
2026-05-04 08:13 49.64134 0.82924 36998 ft 435 kts 151°
2026-05-04 08:14 49.58990 0.87890 37002 ft 435 kts 151°
2026-05-04 08:16 49.38457 1.07588 36992 ft 435 kts 151°
2026-05-04 08:16 49.33321 1.12485 36990 ft 434 kts 151°
2026-05-04 08:17 49.28206 1.17349 36993 ft 434 kts 151°
2026-05-04 08:17 49.23039 1.22251 36989 ft 434 kts 151°
2026-05-04 08:19 49.02503 1.41614 36991 ft 434 kts 152°
2026-05-04 08:20 48.97384 1.46411 36991 ft 434 kts 152°
2026-05-04 08:20 48.92237 1.51223 36992 ft 433 kts 152°
2026-05-04 08:21 48.87091 1.56021 36993 ft 433 kts 152°
2026-05-04 08:21 48.81953 1.60801 36976 ft 432 kts 152°
2026-05-04 08:22 48.76845 1.65542 36976 ft 430 kts 152°
2026-05-04 08:24 48.56438 1.84364 36983 ft 427 kts 153°
2026-05-04 08:24 48.51377 1.89004 36979 ft 427 kts 153°
2026-05-04 08:25 48.46297 1.93651 36973 ft 426 kts 153°
2026-05-04 08:25 48.41188 1.98170 36973 ft 422 kts 160°
2026-05-04 08:27 48.18912 2.08469 36971 ft 418 kts 167°
2026-05-04 08:28 48.13332 2.10965 36980 ft 418 kts 167°
2026-05-04 08:28 48.07752 2.13455 36986 ft 418 kts 167°
2026-05-04 08:29 48.02198 2.15926 36988 ft 418 kts 167°
2026-05-04 08:31 47.80792 2.25399 36988 ft 418 kts 167°
2026-05-04 08:33 47.58473 2.35189 36982 ft 418 kts 167°
2026-05-04 08:35 47.36177 2.44882 36983 ft 417 kts 167°
2026-05-04 08:35 47.30632 2.47280 36981 ft 417 kts 167°
2026-05-04 08:37 47.11128 2.55671 36995 ft 417 kts 167°
2026-05-04 08:38 47.05547 2.58060 36993 ft 417 kts 167°
2026-05-04 08:38 46.99981 2.60438 36992 ft 417 kts 167°
2026-05-04 08:40 46.77653 2.69924 36985 ft 417 kts 167°
2026-05-04 08:41 46.72082 2.72279 36985 ft 417 kts 168°
2026-05-04 08:41 46.66550 2.74612 36981 ft 417 kts 168°
2026-05-04 08:42 46.60947 2.76969 36987 ft 417 kts 168°
2026-05-04 08:42 46.55366 2.79313 36984 ft 417 kts 168°
2026-05-04 08:43 46.49816 2.81637 36987 ft 417 kts 168°
2026-05-04 08:43 46.44229 2.83973 36992 ft 417 kts 168°
2026-05-04 08:44 46.38636 2.86307 36992 ft 417 kts 168°
2026-05-04 08:46 46.16338 2.95560 36988 ft 417 kts 168°
2026-05-04 08:46 46.10754 2.97865 36992 ft 417 kts 168°
2026-05-04 08:47 46.05134 3.00180 36984 ft 417 kts 168°
2026-05-04 08:47 45.99553 3.02474 36988 ft 417 kts 168°
2026-05-04 08:48 45.93954 3.04770 36994 ft 418 kts 168°
2026-05-04 08:48 45.88382 3.07052 36991 ft 418 kts 168°
2026-05-04 08:49 45.82787 3.09337 36993 ft 417 kts 168°
2026-05-04 08:50 45.63207 3.17297 36996 ft 419 kts 168°
2026-05-04 08:51 45.57586 3.19572 37003 ft 419 kts 168°
2026-05-04 08:51 45.51966 3.21842 36991 ft 418 kts 168°
2026-05-04 08:52 45.46378 3.24094 36992 ft 418 kts 168°
2026-05-04 08:52 45.40761 3.26353 36989 ft 417 kts 168°
2026-05-04 08:54 45.18359 3.35315 37011 ft 419 kts 169°
2026-05-04 08:55 45.12741 3.37551 37008 ft 418 kts 169°
2026-05-04 08:55 45.07151 3.39773 37012 ft 417 kts 169°
2026-05-04 09:01 44.49177 3.62539 37045 ft 419 kts 169°
2026-05-04 09:01 44.43569 3.64716 37045 ft 419 kts 169°
2026-05-04 09:02 44.37924 3.66903 37067 ft 421 kts 169°
2026-05-04 09:02 44.32259 3.69093 37062 ft 422 kts 169°
2026-05-04 09:03 44.26649 3.71259 37054 ft 420 kts 169°
2026-05-04 09:03 44.21011 3.73430 37053 ft 421 kts 169°
2026-05-04 09:04 44.15368 3.75600 37049 ft 420 kts 170°
2026-05-04 09:04 44.09674 3.77784 37045 ft 421 kts 170°
2026-05-04 09:05 44.04072 3.79929 37040 ft 419 kts 170°
2026-05-04 09:05 43.98430 3.82084 37038 ft 420 kts 170°
2026-05-04 09:06 43.92784 3.84237 37035 ft 421 kts 170°
2026-05-04 09:08 43.70108 3.92844 37022 ft 423 kts 170°
2026-05-04 09:08 43.64407 3.94999 37025 ft 424 kts 171°
2026-05-04 09:09 43.58825 3.98038 37031 ft 436 kts 155°
2026-05-04 09:09 43.54007 4.03349 37016 ft 451 kts 139°
2026-05-04 09:10 43.49843 4.09867 37015 ft 452 kts 138°
2026-05-04 09:10 43.45666 4.16353 37014 ft 453 kts 138°
2026-05-04 09:11 43.41447 4.22869 37005 ft 453 kts 138°
2026-05-04 09:11 43.37243 4.29344 36998 ft 453 kts 138°
2026-05-04 09:12 43.33060 4.35775 37002 ft 453 kts 138°
2026-05-04 09:14 43.16082 4.61727 37005 ft 456 kts 139°
2026-05-04 09:14 43.11826 4.68196 37004 ft 456 kts 139°
2026-05-04 09:15 43.07573 4.74647 37003 ft 456 kts 139°
2026-05-04 09:15 43.03308 4.81100 37002 ft 456 kts 139°
2026-05-04 09:17 42.84350 5.10663 37017 ft 466 kts 133°
2026-05-04 09:18 42.80506 5.17812 37020 ft 467 kts 133°
2026-05-04 09:18 42.77300 5.23739 37024 ft 468 kts 133°
2026-05-04 09:19 42.73418 5.30884 37026 ft 469 kts 133°
2026-05-04 09:19 42.69501 5.38076 37029 ft 470 kts 133°
2026-05-04 09:20 42.65598 5.45225 37029 ft 471 kts 133°
2026-05-04 09:20 42.61708 5.52333 37038 ft 472 kts 133°
2026-05-04 09:21 42.57749 5.59549 37046 ft 474 kts 133°
2026-05-04 09:21 42.53862 5.66617 37049 ft 474 kts 133°
2026-05-04 09:22 42.49908 5.73791 37048 ft 475 kts 133°
2026-05-04 09:22 42.45967 5.80924 37053 ft 476 kts 133°
2026-05-04 09:23 42.41993 5.88099 37050 ft 476 kts 133°
2026-05-04 09:23 42.38009 5.95276 37051 ft 476 kts 133°
2026-05-04 09:25 42.22045 6.23860 37050 ft 478 kts 133°
2026-05-04 09:26 42.18030 6.31006 37045 ft 478 kts 133°
2026-05-04 09:26 42.14002 6.38159 37047 ft 479 kts 133°
2026-05-04 09:27 42.10002 6.45363 37050 ft 481 kts 131°
2026-05-04 09:27 42.06112 6.52699 37056 ft 482 kts 131°
2026-05-04 09:28 42.02193 6.60055 37051 ft 482 kts 131°
2026-05-04 09:28 41.98295 6.67315 37060 ft 482 kts 131°
2026-05-04 09:29 41.94346 6.74641 37056 ft 483 kts 131°
2026-05-04 09:29 41.90389 6.81965 37060 ft 484 kts 131°
2026-05-04 09:30 41.86452 6.89234 37060 ft 484 kts 131°
2026-05-04 09:30 41.82480 6.96550 37069 ft 485 kts 131°
2026-05-04 09:31 41.78497 7.03869 37064 ft 485 kts 131°
2026-05-04 09:31 41.74503 7.11192 37067 ft 486 kts 131°
2026-05-04 09:32 41.70531 7.18455 37068 ft 486 kts 131°
2026-05-04 09:34 41.54479 7.47634 37071 ft 487 kts 131°
2026-05-04 09:34 41.50452 7.54911 37072 ft 487 kts 131°
2026-05-04 09:35 41.46443 7.62139 37061 ft 487 kts 131°
2026-05-04 09:35 41.42391 7.69426 37063 ft 488 kts 131°
2026-05-04 09:37 41.26166 7.98434 37071 ft 489 kts 131°
2026-05-04 09:38 41.22083 8.05692 37069 ft 490 kts 131°
2026-05-04 09:38 41.17926 8.12771 37071 ft 486 kts 138°
2026-05-04 09:39 41.12935 8.18704 37067 ft 476 kts 151°
2026-05-04 09:39 41.07322 8.23086 37069 ft 466 kts 161°
2026-05-04 09:40 41.01424 8.26634 37070 ft 465 kts 163°
2026-05-04 09:40 40.95485 8.30132 37072 ft 466 kts 163°
2026-05-04 09:42 40.71785 8.44286 37085 ft 469 kts 163°
2026-05-04 09:43 40.65861 8.47811 37088 ft 469 kts 163°
2026-05-04 09:43 40.59886 8.51361 37073 ft 467 kts 163°
2026-05-04 09:44 40.53944 8.54881 37077 ft 468 kts 163°
2026-05-04 09:46 40.30178 8.68900 37091 ft 470 kts 163°
2026-05-04 09:46 40.24208 8.72405 37094 ft 470 kts 163°
2026-05-04 09:47 40.18214 8.75917 37089 ft 470 kts 163°
2026-05-04 09:49 39.94316 8.89850 37091 ft 471 kts 163°
2026-05-04 09:51 39.73345 9.01986 37098 ft 473 kts 163°
2026-05-04 09:51 39.67309 9.05466 37098 ft 474 kts 163°
2026-05-04 09:52 39.61474 9.09548 37090 ft 484 kts 154°
2026-05-04 09:52 39.55793 9.14269 37086 ft 485 kts 154°
2026-05-04 09:53 39.51049 9.18185 37089 ft 486 kts 154°
2026-05-04 09:53 39.45285 9.22924 37093 ft 487 kts 154°
2026-05-04 09:54 39.39505 9.27665 37092 ft 488 kts 154°
2026-05-04 09:54 39.33740 9.32385 37097 ft 487 kts 154°
2026-05-04 09:55 39.27977 9.37091 37117 ft 490 kts 154°
2026-05-04 09:55 39.22219 9.41787 37116 ft 489 kts 154°
2026-05-04 09:56 39.16423 9.46504 37121 ft 491 kts 153°
2026-05-04 09:56 39.10404 9.50649 37115 ft 483 kts 165°
2026-05-04 09:57 39.04058 9.53205 37103 ft 475 kts 173°
2026-05-04 09:57 38.97593 9.55337 37108 ft 475 kts 173°
2026-05-04 09:58 38.91131 9.57493 37098 ft 476 kts 172°
2026-05-04 09:58 38.84695 9.59612 37098 ft 476 kts 173°
2026-05-04 10:00 38.58872 9.67974 37096 ft 476 kts 172°
2026-05-04 10:04 38.14301 9.82311 37085 ft 468 kts 172°
2026-05-04 10:04 38.07910 9.84364 37070 ft 468 kts 172°
2026-05-04 10:05 38.02533 9.86089 37088 ft 468 kts 173°
2026-05-04 10:05 37.96185 9.88121 37091 ft 467 kts 173°
2026-05-04 10:06 37.89838 9.90149 37084 ft 467 kts 172°
2026-05-04 10:06 37.83552 9.92154 37084 ft 467 kts 172°
2026-05-04 10:08 37.67205 10.05803 37082 ft 493 kts 136°
2026-05-04 10:08 37.64865 10.08969 37084 ft 493 kts 137°
2026-05-04 10:08 37.60188 10.15262 37087 ft 494 kts 137°
2026-05-04 10:09 37.55443 10.21626 37092 ft 495 kts 137°
2026-05-04 10:09 37.50715 10.27955 37094 ft 495 kts 137°
2026-05-04 10:10 37.46014 10.34235 37094 ft 496 kts 137°
2026-05-04 10:10 37.41245 10.40600 37098 ft 496 kts 136°
2026-05-04 10:11 37.36527 10.46893 37100 ft 497 kts 136°
2026-05-04 10:11 37.31779 10.53212 37094 ft 497 kts 136°
2026-05-04 10:12 37.29408 10.56363 36931 ft 493 kts 136°
2026-05-04 10:12 37.27020 10.59533 36435 ft 492 kts 136°
2026-05-04 10:12 37.24715 10.62590 35801 ft 492 kts 137°
2026-05-04 10:12 37.22321 10.65762 35097 ft 493 kts 137°
2026-05-04 10:13 37.19951 10.68895 34389 ft 494 kts 137°
2026-05-04 10:13 37.17577 10.72032 33639 ft 495 kts 136°
2026-05-04 10:13 37.15201 10.75167 32844 ft 496 kts 136°
2026-05-04 10:13 37.12826 10.78296 32038 ft 497 kts 136°
2026-05-04 10:14 37.10432 10.81447 31240 ft 498 kts 136°
2026-05-04 10:14 37.08039 10.84594 30485 ft 499 kts 135°
2026-05-04 10:16 36.90429 11.03317 26301 ft 453 kts 170°
2026-05-04 10:16 36.87324 11.03896 25740 ft 442 kts 182°
2026-05-04 10:16 36.84260 11.03693 25177 ft 431 kts 194°
2026-05-04 10:16 36.81371 11.03018 24628 ft 426 kts 195°
2026-05-04 10:17 36.78466 11.02330 24124 ft 422 kts 195°
2026-05-04 10:17 36.75596 11.01656 23580 ft 418 kts 195°
2026-05-04 10:19 36.56183 10.97146 19568 ft 394 kts 194°
2026-05-04 10:19 36.53638 10.96557 19070 ft 391 kts 194°
2026-05-04 10:19 36.50984 10.95943 18545 ft 388 kts 194°
2026-05-04 10:19 36.48287 10.95319 18028 ft 383 kts 194°
2026-05-04 10:20 36.45710 10.94726 17865 ft 369 kts 194°
2026-05-04 10:20 36.43231 10.94158 17725 ft 356 kts 194°
2026-05-04 10:20 36.41571 10.93776 17634 ft 347 kts 194°
2026-05-04 10:20 36.38494 10.93067 17144 ft 340 kts 194°
2026-05-04 10:21 36.36159 10.92526 16633 ft 340 kts 194°
2026-05-04 10:21 36.33826 10.91985 16126 ft 339 kts 193°
2026-05-04 10:21 36.31467 10.91469 15621 ft 339 kts 188°
2026-05-04 10:21 36.29108 10.91703 15146 ft 343 kts 165°
2026-05-04 10:22 36.25837 10.94370 14341 ft 336 kts 127°
2026-05-04 10:22 36.24796 10.96865 13874 ft 327 kts 103°
2026-05-04 10:22 36.24616 10.99635 13349 ft 315 kts 79°
2026-05-04 10:23 36.25252 11.02000 12864 ft 303 kts 56°
2026-05-04 10:23 36.26633 11.03879 12361 ft 290 kts 30°
2026-05-04 10:25 36.39397 11.06118 9472 ft 260 kts
2026-05-04 10:25 36.41182 11.05945 9070 ft 256 kts 342°
2026-05-04 10:25 36.42807 11.05027 8677 ft 253 kts 323°
2026-05-04 10:25 36.44046 11.03499 8283 ft 252 kts 304°
2026-05-04 10:26 36.44788 11.01538 7872 ft 253 kts 284°
2026-05-04 10:26 36.44945 10.99356 7422 ft 256 kts 264°
2026-05-04 10:26 36.44481 10.97217 6994 ft 260 kts 245°
2026-05-04 10:26 36.43445 10.95400 6575 ft 263 kts 224°
2026-05-04 10:27 36.41936 10.94136 6240 ft 262 kts 203°
2026-05-04 10:27 36.40210 10.93579 6135 ft 251 kts 191°
2026-05-04 10:27 36.38460 10.93172 6129 ft 255 kts 192°
2026-05-04 10:27 36.36747 10.92756 6085 ft 252 kts 192°
2026-05-04 10:28 36.35031 10.92335 5880 ft 250 kts 192°
2026-05-04 10:28 36.33338 10.91920 5642 ft 245 kts 192°
2026-05-04 10:28 36.31705 10.91478 5490 ft 236 kts 202°
2026-05-04 10:28 36.30323 10.90465 5305 ft 226 kts 219°
2026-05-04 10:29 36.29139 10.89212 5184 ft 222 kts 222°
2026-05-04 10:29 36.27948 10.87942 5083 ft 231 kts 220°
2026-05-04 10:29 36.26694 10.86710 4997 ft 232 kts 218°
2026-05-04 10:29 36.25387 10.85520 4871 ft 226 kts 217°
2026-05-04 10:30 36.24111 10.84406 4770 ft 224 kts 216°
2026-05-04 10:30 36.22825 10.83301 4654 ft 226 kts 216°
2026-05-04 10:30 36.21530 10.82194 4549 ft 225 kts 216°
2026-05-04 10:30 36.20242 10.81093 4408 ft 224 kts 215°
2026-05-04 10:31 36.18959 10.79995 4196 ft 225 kts 215°
2026-05-04 10:31 36.17675 10.78896 3978 ft 223 kts 215°
2026-05-04 10:32 36.10195 10.72507 2968 ft 216 kts 215°
2026-05-04 10:33 36.08955 10.71438 2797 ft 214 kts 218°
2026-05-04 10:33 36.08002 10.70025 2472 ft 217 kts 243°
2026-05-04 10:33 36.07598 10.68227 2219 ft 218 kts 260°
2026-05-04 10:33 36.07506 10.66402 2114 ft 208 kts 266°
2026-05-04 10:34 36.07503 10.64651 2018 ft 198 kts 266°
2026-05-04 10:34 36.07507 10.63066 1975 ft 186 kts 266°
2026-05-04 10:34 36.07510 10.61428 1978 ft 180 kts 266°
2026-05-04 10:34 36.07516 10.59961 1970 ft 165 kts 266°
2026-05-04 10:35 36.07519 10.58571 1985 ft 165 kts 265°
2026-05-04 10:35 36.07523 10.57139 1786 ft 166 kts 265°
2026-05-04 10:35 36.07527 10.55712 1566 ft 165 kts 266°
2026-05-04 10:35 36.07532 10.54299 1353 ft 164 kts 266°
2026-05-04 10:36 36.07538 10.52888 1156 ft 158 kts 266°
2026-05-04 10:36 36.07543 10.51576 938 ft 148 kts 265°
2026-05-04 10:36 36.07546 10.50315 760 ft 151 kts 266°
2026-05-04 10:36 36.07552 10.49025 579 ft 147 kts 266°
2026-05-04 10:37 36.07556 10.47727 375 ft 145 kts 265°
2026-05-04 10:37 36.07570 10.46526 234 ft 146 kts 267°
2026-05-04 10:37 36.07582 10.45498 91 ft 145 kts 266°
2026-05-04 10:37 36.07594 10.44232 35 ft 137 kts 264°
2026-05-04 10:39 36.08038 10.42728 29 ft 15 kts 45°
2026-05-04 10:39 36.08039 10.42813 26 ft 11 kts 102°
2026-05-04 10:39 36.08033 10.42921 26 ft 14 kts 91°
2026-05-04 10:40 36.08029 10.43057 28 ft 17 kts 91°
2026-05-04 10:40 36.08038 10.43217 23 ft 20 kts 87°
2026-05-04 10:40 36.08044 10.43402 22 ft 20 kts 88°
2026-05-04 10:40 36.08108 10.43513 22 ft 18 kts
2026-05-04 10:41 36.08198 10.43516 21 ft 7 kts 360°
2026-05-04 10:41 36.08266 10.43520 18 ft 12 kts 25°
2026-05-04 10:41 36.08296 10.43609 15 ft 0 kts 82°